Time,TemperatureF,DewpointF,PressureIn,WindDirection,WindDirectionDegrees,WindSpeedMPH,WindSpeedGustMPH,Humidity,HourlyPrecipIn,Conditions,Clouds,dailyrainin,SoftwareType,DateUTC
2013-02-08 00:00:00,16.9,9.1,30.28,NNW,343,0.0,0.0,71,0.00,,,0.00,VWS V14.00,2013-02-08 05:00:00,
2013-02-08 00:06:00,17.0,8.9,30.28,NNW,343,0.0,0.0,70,0.00,,,0.00,VWS V14.00,2013-02-08 05:06:00,
2013-02-08 00:12:00,17.2,8.9,30.27,NNW,343,0.0,0.0,69,0.00,,,0.00,VWS V14.00,2013-02-08 05:12:00,
2013-02-08 00:15:00,17.3,8.9,30.27,NNW,343,0.0,0.0,69,0.00,,,0.00,VWS V14.00,2013-02-08 05:15:00,
2013-02-08 00:21:00,17.7,9.1,30.27,NNW,343,0.0,0.0,68,0.00,,,0.00,VWS V14.00,2013-02-08 05:21:00,
2013-02-08 00:27:00,18.2,9.2,30.27,ESE,111,0.0,6.8,67,0.00,,,0.00,VWS V14.00,2013-02-08 05:27:00,
2013-02-08 00:33:00,18.7,9.2,30.26,ESE,110,4.6,9.0,66,0.00,,,0.00,VWS V14.00,2013-02-08 05:33:00,
2013-02-08 00:39:00,18.9,8.9,30.26,ENE,58,0.0,9.0,64,0.00,,,0.00,VWS V14.00,2013-02-08 05:39:00,
2013-02-08 00:45:00,19.3,8.8,30.26,ENE,58,0.0,9.0,63,0.00,,,0.00,VWS V14.00,2013-02-08 05:45:00,
2013-02-08 00:51:00,19.7,8.7,30.26,SE,141,0.0,9.0,62,0.00,,,0.00,VWS V14.00,2013-02-08 05:51:00,
2013-02-08 00:57:00,20.0,8.7,30.26,NE,49,0.0,9.0,61,0.00,,,0.00,VWS V14.00,2013-02-08 05:57:00,
2013-02-08 01:03:00,20.2,8.6,30.26,NNE,22,0.0,9.0,60,0.00,,,0.00,VWS V14.00,2013-02-08 06:03:00,
2013-02-08 01:09:00,20.3,8.5,30.26,NNE,15,0.0,9.0,60,0.00,,,0.00,VWS V14.00,2013-02-08 06:09:00,
2013-02-08 01:15:00,20.3,8.4,30.25,SE,146,9.3,12.6,59,0.00,,,0.00,VWS V14.00,2013-02-08 06:15:00,
2013-02-08 01:21:00,20.4,8.1,30.25,ESE,122,0.0,12.6,58,0.00,,,0.00,VWS V14.00,2013-02-08 06:21:00,
2013-02-08 01:27:00,20.5,8.1,30.26,SE,138,4.5,12.6,58,0.00,,,0.00,VWS V14.00,2013-02-08 06:27:00,
2013-02-08 01:34:00,20.5,7.9,30.25,SE,138,11.5,13.0,58,0.00,,,0.00,VWS V14.00,2013-02-08 06:34:00,
2013-02-08 01:40:00,20.7,8.0,30.25,ESE,110,0.0,15.0,57,0.00,,,0.00,VWS V14.00,2013-02-08 06:40:00,
2013-02-08 01:46:00,20.8,7.9,30.24,South,177,0.0,15.0,57,0.00,,,0.00,VWS V14.00,2013-02-08 06:46:00,
2013-02-08 01:52:00,20.9,7.9,30.24,ENE,73,5.7,15.0,57,0.00,,,0.00,VWS V14.00,2013-02-08 06:52:00,
2013-02-08 01:58:00,20.8,7.8,30.25,SSE,159,0.0,15.0,56,0.00,,,0.00,VWS V14.00,2013-02-08 06:58:00,
2013-02-08 02:04:00,20.9,7.9,30.25,East,97,0.0,15.0,57,0.00,,,0.00,VWS V14.00,2013-02-08 07:04:00,
2013-02-08 02:10:00,20.9,8.0,30.25,ESE,122,5.0,15.0,57,0.00,,,0.00,VWS V14.00,2013-02-08 07:10:00,
2013-02-08 02:16:00,21.0,8.2,30.24,East,98,8.8,15.0,57,0.00,,,0.00,VWS V14.00,2013-02-08 07:16:00,
2013-02-08 02:22:00,21.0,8.4,30.24,ESE,122,8.4,15.0,58,0.00,,,0.00,VWS V14.00,2013-02-08 07:22:00,
2013-02-08 02:28:00,21.0,8.6,30.24,ESE,122,7.8,15.0,58,0.00,,,0.00,VWS V14.00,2013-02-08 07:28:00,
2013-02-08 02:34:00,21.1,9.2,30.24,ESE,108,4.3,15.0,60,0.00,,,0.00,VWS V14.00,2013-02-08 07:34:00,
2013-02-08 02:40:00,21.0,9.8,30.23,ESE,111,3.5,15.0,61,0.00,,,0.00,VWS V14.00,2013-02-08 07:40:00,
2013-02-08 02:46:00,21.1,10.5,30.23,ESE,120,0.0,15.0,63,0.00,,,0.00,VWS V14.00,2013-02-08 07:46:00,
2013-02-08 02:52:00,21.0,11.0,30.23,South,180,0.0,15.0,65,0.00,,,0.00,VWS V14.00,2013-02-08 07:52:00,
2013-02-08 02:58:00,20.8,11.4,30.22,East,86,5.2,15.0,66,0.00,,,0.00,VWS V14.00,2013-02-08 07:58:00,
2013-02-08 03:04:00,20.6,11.8,30.21,SE,127,6.3,15.0,68,0.00,,,0.00,VWS V14.00,2013-02-08 08:04:00,
2013-02-08 03:10:00,20.5,12.2,30.21,SSE,167,4.5,15.0,70,0.00,,,0.00,VWS V14.00,2013-02-08 08:10:00,
2013-02-08 03:16:00,20.5,12.5,30.21,East,100,0.0,15.0,71,0.00,,,0.00,VWS V14.00,2013-02-08 08:16:00,
2013-02-08 03:22:00,20.4,12.8,30.20,East,100,0.0,15.0,72,0.00,,,0.00,VWS V14.00,2013-02-08 08:22:00,
2013-02-08 03:28:00,20.4,12.9,30.20,SSE,152,0.0,15.0,72,0.00,,,0.00,VWS V14.00,2013-02-08 08:28:00,
2013-02-08 03:34:00,20.5,13.1,30.20,SSE,160,0.0,15.0,72,0.00,,,0.00,VWS V14.00,2013-02-08 08:34:00,
2013-02-08 03:40:00,20.6,13.2,30.19,NE,38,0.0,15.0,72,0.00,,,0.00,VWS V14.00,2013-02-08 08:40:00,
2013-02-08 03:46:00,20.5,13.1,30.19,SSE,158,0.0,15.0,73,0.00,,,0.00,VWS V14.00,2013-02-08 08:46:00,
2013-02-08 03:52:00,20.5,13.1,30.19,South,190,0.0,15.0,72,0.00,,,0.00,VWS V14.00,2013-02-08 08:52:00,
2013-02-08 03:58:00,20.5,13.2,30.19,South,190,0.0,15.0,73,0.00,,,0.00,VWS V14.00,2013-02-08 08:58:00,
2013-02-08 04:04:00,20.7,13.6,30.18,East,84,0.0,15.0,73,0.00,,,0.00,VWS V14.00,2013-02-08 09:04:00,
2013-02-08 04:10:00,20.6,13.5,30.17,SSW,208,5.2,15.0,73,0.00,,,0.00,VWS V14.00,2013-02-08 09:10:00,
2013-02-08 04:16:00,20.6,13.3,30.17,East,84,0.0,15.0,73,0.00,,,0.00,VWS V14.00,2013-02-08 09:16:00,
2013-02-08 04:22:00,20.5,13.2,30.17,ESE,105,0.0,15.0,73,0.00,,,0.00,VWS V14.00,2013-02-08 09:22:00,
2013-02-08 04:28:00,20.7,13.3,30.17,NNW,345,3.4,15.0,72,0.00,,,0.00,VWS V14.00,2013-02-08 09:28:00,
2013-02-08 04:34:00,20.6,13.0,30.16,ENE,77,0.0,15.0,72,0.00,,,0.00,VWS V14.00,2013-02-08 09:34:00,
2013-02-08 04:40:00,20.8,13.0,30.16,SE,125,2.0,15.0,71,0.00,,,0.00,VWS V14.00,2013-02-08 09:40:00,
2013-02-08 04:46:00,20.8,12.6,30.16,SSE,163,5.0,15.0,70,0.00,,,0.00,VWS V14.00,2013-02-08 09:46:00,
2013-02-08 04:52:00,21.0,12.6,30.16,ESE,122,0.0,15.0,70,0.00,,,0.00,VWS V14.00,2013-02-08 09:52:00,
2013-02-08 04:58:00,20.9,12.6,30.17,ESE,112,4.3,15.0,70,0.00,,,0.00,VWS V14.00,2013-02-08 09:58:00,
2013-02-08 05:04:00,20.8,12.7,30.16,East,80,0.0,15.0,70,0.00,,,0.00,VWS V14.00,2013-02-08 10:04:00,
2013-02-08 05:10:00,20.8,13.0,30.17,ENE,75,0.0,15.0,71,0.00,,,0.00,VWS V14.00,2013-02-08 10:10:00,
2013-02-08 05:16:00,20.7,13.4,30.16,NE,41,0.0,15.0,73,0.00,,,0.00,VWS V14.00,2013-02-08 10:16:00,
2013-02-08 05:22:00,20.7,13.8,30.16,NNE,31,0.0,15.0,74,0.00,,,0.00,VWS V14.00,2013-02-08 10:22:00,
2013-02-08 05:28:00,20.7,14.4,30.15,ESE,117,6.1,15.0,76,0.00,,,0.00,VWS V14.00,2013-02-08 10:28:00,
2013-02-08 05:34:00,20.6,14.8,30.15,NE,53,0.0,15.0,78,0.00,,,0.00,VWS V14.00,2013-02-08 10:34:00,
2013-02-08 05:40:00,20.8,15.4,30.15,SSE,163,3.1,15.0,79,0.00,,,0.00,VWS V14.00,2013-02-08 10:40:00,
2013-02-08 05:46:00,21.1,16.1,30.14,NE,42,0.0,15.0,81,0.00,,,0.00,VWS V14.00,2013-02-08 10:46:00,
2013-02-08 05:52:00,21.0,16.2,30.14,SSW,208,3.0,15.0,81,0.00,,,0.00,VWS V14.00,2013-02-08 10:52:00,
2013-02-08 05:58:00,21.2,16.5,30.15,South,174,4.8,15.0,82,0.00,,,0.00,VWS V14.00,2013-02-08 10:58:00,
2013-02-08 06:04:00,21.3,16.5,30.14,NE,41,5.1,15.0,82,0.00,,,0.00,VWS V14.00,2013-02-08 11:04:00,
2013-02-08 06:11:00,21.5,16.8,30.14,South,170,0.0,15.0,82,0.00,,,0.00,VWS V14.00,2013-02-08 11:11:00,
2013-02-08 06:17:00,21.6,16.9,30.14,SSE,149,4.2,15.0,82,0.00,,,0.00,VWS V14.00,2013-02-08 11:17:00,
2013-02-08 06:23:00,21.8,17.2,30.14,South,172,3.5,15.0,82,0.00,,,0.00,VWS V14.00,2013-02-08 11:23:00,
2013-02-08 06:29:00,21.7,17.2,30.14,ESE,120,3.4,15.8,82,0.00,,,0.00,VWS V14.00,2013-02-08 11:29:00,
2013-02-08 06:35:00,21.9,17.4,30.13,ESE,108,7.1,15.8,83,0.00,,,0.00,VWS V14.00,2013-02-08 11:35:00,
2013-02-08 06:41:00,21.8,17.5,30.14,South,181,5.0,15.8,83,0.00,,,0.00,VWS V14.00,2013-02-08 11:41:00,
2013-02-08 06:47:00,22.1,18.0,30.14,SE,141,9.3,15.8,84,0.00,,,0.00,VWS V14.00,2013-02-08 11:47:00,
2013-02-08 06:53:00,22.0,18.2,30.14,SE,139,5.7,15.8,85,0.00,,,0.00,VWS V14.00,2013-02-08 11:53:00,
2013-02-08 06:59:00,21.9,18.3,30.13,SSE,162,7.6,15.8,86,0.00,,,0.00,VWS V14.00,2013-02-08 11:59:00,
2013-02-08 07:05:00,22.1,18.8,30.13,ESE,120,6.2,16.3,87,0.00,,,0.00,VWS V14.00,2013-02-08 12:05:00,
2013-02-08 07:11:00,22.2,19.1,30.13,SSE,152,8.0,16.3,88,0.00,,,0.00,VWS V14.00,2013-02-08 12:11:00,
2013-02-08 07:17:00,22.2,19.3,30.13,NE,55,0.0,16.3,88,0.00,,,0.00,VWS V14.00,2013-02-08 12:17:00,
2013-02-08 07:23:00,22.3,19.4,30.13,SSE,165,8.5,16.3,88,0.00,,,0.00,VWS V14.00,2013-02-08 12:23:00,
2013-02-08 07:29:00,22.5,19.4,30.13,SSE,153,4.7,16.3,88,0.00,,,0.00,VWS V14.00,2013-02-08 12:29:00,
2013-02-08 07:35:00,22.6,19.4,30.13,ESE,117,9.1,16.3,87,0.00,,,0.00,VWS V14.00,2013-02-08 12:35:00,
2013-02-08 07:41:00,22.7,19.4,30.14,SE,128,7.3,16.3,87,0.00,,,0.00,VWS V14.00,2013-02-08 12:41:00,
2013-02-08 07:47:00,22.8,19.5,30.13,ESE,122,6.6,16.3,87,0.00,,,0.00,VWS V14.00,2013-02-08 12:47:00,
2013-02-08 07:53:00,22.8,19.6,30.13,SE,145,0.0,16.3,87,0.00,,,0.00,VWS V14.00,2013-02-08 12:53:00,
2013-02-08 07:59:00,22.9,19.7,30.13,South,183,8.5,17.6,87,0.00,,,0.00,VWS V14.00,2013-02-08 12:59:00,
2013-02-08 08:05:00,22.9,19.6,30.13,ESE,103,5.5,17.6,87,0.00,,,0.00,VWS V14.00,2013-02-08 13:05:00,
2013-02-08 08:11:00,23.0,19.5,30.13,SSW,193,8.3,17.6,86,0.00,,,0.00,VWS V14.00,2013-02-08 13:11:00,
2013-02-08 08:17:00,23.0,19.5,30.13,SSE,153,6.0,17.6,86,0.00,,,0.00,VWS V14.00,2013-02-08 13:17:00,
2013-02-08 08:23:00,23.1,19.5,30.12,SE,136,4.5,17.6,86,0.00,,,0.00,VWS V14.00,2013-02-08 13:23:00,
2013-02-08 08:29:00,23.0,19.4,30.11,SE,135,8.4,19.9,86,0.00,,,0.00,VWS V14.00,2013-02-08 13:29:00,
2013-02-08 08:35:00,22.9,19.5,30.11,SE,145,13.0,19.9,87,0.00,,,0.00,VWS V14.00,2013-02-08 13:35:00,
2013-02-08 08:41:00,23.0,19.6,30.10,SSE,148,7.4,19.9,87,0.00,,,0.00,VWS V14.00,2013-02-08 13:41:00,
2013-02-08 08:47:00,23.1,19.7,30.10,SE,132,5.9,19.9,87,0.00,,,0.00,VWS V14.00,2013-02-08 13:47:00,
2013-02-08 08:53:00,23.2,19.7,30.10,SE,132,13.6,19.9,86,0.00,,,0.00,VWS V14.00,2013-02-08 13:53:00,
2013-02-08 08:59:00,23.2,19.5,30.10,SSE,152,10.3,19.9,85,0.00,,,0.00,VWS V14.00,2013-02-08 13:59:00,
2013-02-08 09:05:00,23.2,19.3,30.10,SSW,207,0.0,19.9,85,0.00,,,0.00,VWS V14.00,2013-02-08 14:05:00,
2013-02-08 09:11:00,23.4,19.4,30.10,SE,142,0.0,19.9,84,0.00,,,0.00,VWS V14.00,2013-02-08 14:11:00,
2013-02-08 09:17:00,23.5,19.5,30.10,SE,139,7.8,19.9,84,0.00,,,0.00,VWS V14.00,2013-02-08 14:17:00,
2013-02-08 09:23:00,23.6,19.5,30.10,East,82,6.1,19.9,84,0.00,,,0.00,VWS V14.00,2013-02-08 14:23:00,
2013-02-08 09:29:00,23.6,19.5,30.09,South,176,7.5,19.9,84,0.00,,,0.00,VWS V14.00,2013-02-08 14:29:00,
2013-02-08 09:35:00,23.8,19.7,30.09,SE,142,6.6,19.9,84,0.00,,,0.00,VWS V14.00,2013-02-08 14:35:00,
2013-02-08 09:41:00,23.7,19.5,30.09,ESE,118,6.0,19.9,84,0.00,,,0.00,VWS V14.00,2013-02-08 14:41:00,
2013-02-08 09:48:00,24.0,19.8,30.08,SE,139,8.4,21.3,84,0.00,,,0.00,VWS V14.00,2013-02-08 14:48:00,
2013-02-08 09:54:00,23.9,19.8,30.09,East,84,5.7,21.3,84,0.00,,,0.00,VWS V14.00,2013-02-08 14:54:00,
2013-02-08 10:00:00,24.1,19.9,30.08,SSW,195,6.0,21.3,84,0.00,,,0.00,VWS V14.00,2013-02-08 15:00:00,
2013-02-08 10:06:00,24.2,19.9,30.08,SE,127,6.3,21.3,84,0.00,,,0.00,VWS V14.00,2013-02-08 15:06:00,
2013-02-08 10:12:00,24.4,20.0,30.08,South,172,8.7,21.3,83,0.00,,,0.00,VWS V14.00,2013-02-08 15:12:00,
2013-02-08 10:18:00,24.6,20.1,30.08,SE,129,8.6,21.3,83,0.00,,,0.00,VWS V14.00,2013-02-08 15:18:00,
2013-02-08 10:24:00,24.7,20.1,30.09,SSE,158,0.0,21.3,82,0.00,,,0.00,VWS V14.00,2013-02-08 15:24:00,
2013-02-08 10:30:00,24.8,20.1,30.08,SSE,162,10.4,21.3,82,0.00,,,0.00,VWS V14.00,2013-02-08 15:30:00,
2013-02-08 10:36:00,24.8,20.1,30.08,SE,136,11.2,21.3,82,0.00,,,0.00,VWS V14.00,2013-02-08 15:36:00,
2013-02-08 10:42:00,24.6,19.9,30.08,SE,131,7.1,21.3,82,0.00,,,0.00,VWS V14.00,2013-02-08 15:42:00,
2013-02-08 10:48:00,24.6,20.1,30.08,SE,143,3.5,21.3,83,0.00,,,0.00,VWS V14.00,2013-02-08 15:48:00,
2013-02-08 10:54:00,24.8,20.5,30.08,NNE,21,13.4,24.7,84,0.00,,,0.00,VWS V14.00,2013-02-08 15:54:00,
2013-02-08 11:00:00,24.8,20.8,30.08,SSE,148,8.0,24.7,84,0.00,,,0.00,VWS V14.00,2013-02-08 16:00:00,
2013-02-08 11:06:00,25.1,21.2,30.07,SSE,152,10.9,24.7,85,0.00,,,0.00,VWS V14.00,2013-02-08 16:06:00,
2013-02-08 11:12:00,25.0,21.3,30.07,ESE,107,11.4,24.7,86,0.00,,,0.00,VWS V14.00,2013-02-08 16:12:00,
2013-02-08 11:18:00,25.0,21.5,30.06,ESE,111,14.4,24.7,86,0.00,,,0.00,VWS V14.00,2013-02-08 16:18:00,
2013-02-08 11:24:00,25.1,21.6,30.05,SE,141,8.9,24.7,86,0.00,,,0.00,VWS V14.00,2013-02-08 16:24:00,
2013-02-08 11:30:00,25.2,21.8,30.04,East,93,13.0,24.7,86,0.00,,,0.00,VWS V14.00,2013-02-08 16:30:00,
2013-02-08 11:36:00,25.3,21.8,30.04,SE,139,5.8,28.8,86,0.00,,,0.00,VWS V14.00,2013-02-08 16:36:00,
2013-02-08 11:42:00,25.7,22.2,30.03,ESE,112,7.8,28.8,86,0.00,,,0.00,VWS V14.00,2013-02-08 16:42:00,
2013-02-08 11:48:00,25.8,22.2,30.02,SE,129,4.5,28.8,86,0.00,,,0.00,VWS V14.00,2013-02-08 16:48:00,
2013-02-08 11:54:00,25.9,22.1,30.02,SSE,167,12.3,28.8,85,0.00,,,0.00,VWS V14.00,2013-02-08 16:54:00,
2013-02-08 12:00:00,25.7,22.0,30.02,ENE,60,0.0,28.8,86,0.00,,,0.00,VWS V14.00,2013-02-08 17:00:00,
2013-02-08 12:06:00,25.4,21.7,30.01,SSE,148,6.2,28.8,86,0.00,,,0.00,VWS V14.00,2013-02-08 17:06:00,
2013-02-08 12:12:00,25.2,21.4,30.00,South,190,5.0,28.8,85,0.00,,,0.00,VWS V14.00,2013-02-08 17:12:00,
2013-02-08 12:18:00,25.4,21.6,30.00,NNE,27,0.0,28.8,85,0.00,,,0.00,VWS V14.00,2013-02-08 17:18:00,
2013-02-08 12:24:00,25.5,21.9,29.98,SE,138,12.4,28.8,86,0.00,,,0.00,VWS V14.00,2013-02-08 17:24:00,
2013-02-08 12:30:00,25.4,22.0,29.98,South,177,11.7,28.8,87,0.00,,,0.00,VWS V14.00,2013-02-08 17:30:00,
2013-02-08 12:36:00,25.2,21.8,29.97,NNE,31,3.4,28.8,86,0.00,,,0.00,VWS V14.00,2013-02-08 17:36:00,
2013-02-08 12:42:00,25.2,21.6,29.97,SE,125,8.9,28.8,86,0.00,,,0.00,VWS V14.00,2013-02-08 17:42:00,
2013-02-08 12:48:00,25.0,21.4,29.97,ESE,111,7.3,28.8,86,0.00,,,0.00,VWS V14.00,2013-02-08 17:48:00,
2013-02-08 12:54:00,24.7,21.1,29.97,ESE,112,12.4,28.8,86,0.00,,,0.00,VWS V14.00,2013-02-08 17:54:00,
2013-02-08 13:00:00,24.5,20.9,29.97,ENE,62,6.1,28.8,86,0.00,,,0.00,VWS V14.00,2013-02-08 18:00:00,
2013-02-08 13:07:00,24.4,20.7,29.96,ENE,69,10.1,28.8,86,0.00,,,0.00,VWS V14.00,2013-02-08 18:07:00,
2013-02-08 13:13:00,24.5,20.8,29.96,WNW,298,3.4,28.8,86,0.00,,,0.00,VWS V14.00,2013-02-08 18:13:00,
2013-02-08 13:19:00,24.2,20.6,29.95,ESE,118,7.2,28.8,86,0.00,,,0.00,VWS V14.00,2013-02-08 18:19:00,
2013-02-08 13:25:00,24.0,20.9,29.95,South,169,8.3,28.8,88,0.00,,,0.00,VWS V14.00,2013-02-08 18:25:00,
2013-02-08 13:31:00,23.6,20.9,29.95,South,184,9.8,28.8,89,0.00,,,0.00,VWS V14.00,2013-02-08 18:31:00,
2013-02-08 13:37:00,23.5,21.1,29.95,SE,135,6.2,28.8,90,0.00,,,0.00,VWS V14.00,2013-02-08 18:37:00,
2013-02-08 13:43:00,23.3,21.1,29.94,South,188,12.6,28.8,91,0.00,,,0.00,VWS V14.00,2013-02-08 18:43:00,
2013-02-08 13:49:00,23.3,21.2,29.93,SSE,155,7.1,28.8,92,0.00,,,0.00,VWS V14.00,2013-02-08 18:49:00,
2013-02-08 13:55:00,23.4,21.4,29.93,SSE,162,9.6,28.8,92,0.00,,,0.00,VWS V14.00,2013-02-08 18:55:00,
2013-02-08 14:01:00,23.5,21.4,29.92,South,174,13.8,28.8,92,0.00,,,0.00,VWS V14.00,2013-02-08 19:01:00,
2013-02-08 14:07:00,23.5,21.5,29.91,SSE,158,8.0,28.8,92,0.00,,,0.00,VWS V14.00,2013-02-08 19:07:00,
2013-02-08 14:13:00,23.7,21.5,29.91,ESE,107,9.7,28.8,91,0.00,,,0.00,VWS V14.00,2013-02-08 19:13:00,
2013-02-08 14:19:00,23.9,21.6,29.91,South,190,9.3,28.8,91,0.00,,,0.00,VWS V14.00,2013-02-08 19:19:00,
2013-02-08 14:25:00,23.9,21.6,29.90,SW,214,14.7,28.8,91,0.00,,,0.00,VWS V14.00,2013-02-08 19:25:00,
2013-02-08 14:31:00,23.9,21.6,29.90,South,183,9.3,28.8,91,0.00,,,0.00,VWS V14.00,2013-02-08 19:31:00,
2013-02-08 14:37:00,23.9,21.4,29.89,ESE,103,8.1,28.8,90,0.00,,,0.00,VWS V14.00,2013-02-08 19:37:00,
2013-02-08 14:44:00,23.8,21.7,29.89,East,79,11.6,28.8,92,0.00,,,0.00,VWS V14.00,2013-02-08 19:44:00,
2013-02-08 14:50:00,23.7,21.6,29.89,ESE,118,11.2,28.8,91,0.00,,,0.00,VWS V14.00,2013-02-08 19:50:00,
2013-02-08 14:56:00,23.3,21.2,29.89,SE,128,15.8,28.8,92,0.00,,,0.00,VWS V14.00,2013-02-08 19:56:00,
2013-02-08 15:02:00,23.2,21.1,29.87,South,177,15.8,33.0,91,0.00,,,0.00,VWS V14.00,2013-02-08 20:02:00,
2013-02-08 15:08:00,23.0,21.0,29.87,SSE,152,16.5,33.0,92,0.00,,,0.00,VWS V14.00,2013-02-08 20:08:00,
2013-02-08 15:14:00,22.9,21.1,29.86,SSE,159,8.7,33.9,92,0.00,,,0.00,VWS V14.00,2013-02-08 20:14:00,
2013-02-08 15:20:00,23.0,21.2,29.87,ESE,117,15.6,33.9,93,0.00,,,0.00,VWS V14.00,2013-02-08 20:20:00,
2013-02-08 15:26:00,23.0,21.1,29.87,SE,145,14.3,36.5,92,0.00,,,0.00,VWS V14.00,2013-02-08 20:26:00,
2013-02-08 15:32:00,23.0,21.1,29.88,East,96,15.0,36.5,92,0.00,,,0.00,VWS V14.00,2013-02-08 20:32:00,
2013-02-08 15:38:00,22.9,20.9,29.87,SE,141,9.1,36.5,92,0.00,,,0.00,VWS V14.00,2013-02-08 20:38:00,
2013-02-08 15:44:00,22.9,20.9,29.87,South,169,10.4,36.5,92,0.00,,,0.00,VWS V14.00,2013-02-08 20:44:00,
2013-02-08 15:50:00,22.9,20.9,29.86,SSE,158,10.6,36.5,92,0.00,,,0.00,VWS V14.00,2013-02-08 20:50:00,
2013-02-08 15:56:00,22.9,20.8,29.85,SE,128,16.7,36.5,92,0.00,,,0.00,VWS V14.00,2013-02-08 20:56:00,
2013-02-08 16:02:00,22.9,20.8,29.85,SE,136,11.5,36.5,91,0.00,,,0.00,VWS V14.00,2013-02-08 21:02:00,
2013-02-08 16:08:00,22.9,20.7,29.84,SE,136,9.0,36.5,91,0.00,,,0.00,VWS V14.00,2013-02-08 21:08:00,
2013-02-08 16:14:00,22.8,20.6,29.84,SE,132,18.6,36.5,91,0.00,,,0.00,VWS V14.00,2013-02-08 21:14:00,
2013-02-08 16:20:00,22.9,20.7,29.83,ESE,108,32.2,36.5,91,0.00,,,0.00,VWS V14.00,2013-02-08 21:20:00,
2013-02-08 16:26:00,23.0,20.8,29.83,SSE,148,20.6,36.5,91,0.00,,,0.00,VWS V14.00,2013-02-08 21:26:00,
2013-02-08 16:32:00,22.9,20.8,29.82,South,177,12.8,36.5,91,0.00,,,0.00,VWS V14.00,2013-02-08 21:32:00,
2013-02-08 16:38:00,22.5,20.4,29.82,SE,146,21.5,36.5,92,0.00,,,0.00,VWS V14.00,2013-02-08 21:38:00,
2013-02-08 16:44:00,22.6,20.6,29.82,SSE,158,18.2,36.5,92,0.00,,,0.00,VWS V14.00,2013-02-08 21:44:00,
2013-02-08 16:50:00,22.2,20.5,29.82,South,169,16.0,36.5,93,0.00,,,0.00,VWS V14.00,2013-02-08 21:50:00,
2013-02-08 16:56:00,21.8,20.4,29.82,SE,129,14.0,36.5,94,0.00,,,0.00,VWS V14.00,2013-02-08 21:56:00,
2013-02-08 17:02:00,21.8,20.8,29.83,ESE,115,15.8,36.5,96,0.00,,,0.00,VWS V14.00,2013-02-08 22:02:00,
2013-02-08 17:08:00,21.5,20.7,29.82,SE,127,7.6,36.5,97,0.00,,,0.00,VWS V14.00,2013-02-08 22:08:00,
2013-02-08 17:14:00,21.5,20.8,29.82,ESE,120,2.9,36.5,97,0.00,,,0.00,VWS V14.00,2013-02-08 22:14:00,
2013-02-08 17:20:00,21.3,20.5,29.82,East,84,11.1,36.5,97,0.00,,,0.00,VWS V14.00,2013-02-08 22:20:00,
2013-02-08 17:26:00,21.4,20.7,29.82,SSE,159,11.6,36.5,97,0.00,,,0.00,VWS V14.00,2013-02-08 22:26:00,
2013-02-08 17:32:00,21.1,20.4,29.82,SE,128,4.7,36.5,97,0.00,,,0.00,VWS V14.00,2013-02-08 22:32:00,
2013-02-08 17:38:00,21.0,20.3,29.82,ENE,73,5.5,36.5,97,0.00,,,0.00,VWS V14.00,2013-02-08 22:38:00,
2013-02-08 17:44:00,20.8,20.2,29.82,SSW,195,4.2,36.5,98,0.00,,,0.00,VWS V14.00,2013-02-08 22:44:00,
2013-02-08 17:50:00,20.6,20.2,29.82,East,98,7.5,36.5,98,0.00,,,0.00,VWS V14.00,2013-02-08 22:50:00,
2013-02-08 17:56:00,20.5,20.1,29.82,ENE,66,16.3,36.5,98,0.00,,,0.00,VWS V14.00,2013-02-08 22:56:00,
2013-02-08 18:02:00,20.3,20.0,29.81,ESE,114,14.9,36.5,99,0.00,,,0.00,VWS V14.00,2013-02-08 23:02:00,
2013-02-08 18:08:00,20.1,19.8,29.80,ESE,117,6.7,36.5,99,0.00,,,0.00,VWS V14.00,2013-02-08 23:08:00,
2013-02-08 18:14:00,20.1,19.8,29.80,SE,128,14.5,36.5,99,0.00,,,0.00,VWS V14.00,2013-02-08 23:14:00,
2013-02-08 18:20:00,20.1,19.8,29.81,East,100,13.6,36.5,99,0.00,,,0.00,VWS V14.00,2013-02-08 23:20:00,
2013-02-08 18:26:00,19.9,19.6,29.82,East,91,7.5,36.5,99,0.00,,,0.00,VWS V14.00,2013-02-08 23:26:00,
2013-02-08 18:32:00,19.9,19.6,29.81,East,83,9.3,36.5,99,0.00,,,0.00,VWS V14.00,2013-02-08 23:32:00,
2013-02-08 18:38:00,19.8,19.5,29.81,South,179,13.9,36.5,99,0.00,,,0.00,VWS V14.00,2013-02-08 23:38:00,
2013-02-08 18:44:00,19.7,19.4,29.81,East,101,9.3,36.5,99,0.00,,,0.00,VWS V14.00,2013-02-08 23:44:00,
2013-02-08 18:51:00,19.7,19.4,29.80,ENE,73,8.1,36.5,99,0.00,,,0.00,VWS V14.00,2013-02-08 23:51:00,
2013-02-08 18:57:00,19.5,19.2,29.80,SE,131,3.2,36.5,99,0.00,,,0.00,VWS V14.00,2013-02-08 23:57:00,
2013-02-08 19:03:00,19.6,19.3,29.80,ENE,76,6.6,36.5,99,0.00,,,0.00,VWS V14.00,2013-02-09 00:03:00,
2013-02-08 19:09:00,19.6,19.2,29.80,ESE,120,7.7,36.5,98,0.00,,,0.00,VWS V14.00,2013-02-09 00:09:00,
2013-02-08 19:15:00,19.7,19.4,29.80,East,96,8.5,36.5,98,0.00,,,0.00,VWS V14.00,2013-02-09 00:15:00,
2013-02-08 19:21:00,19.5,19.2,29.80,SE,128,4.7,36.5,99,0.00,,,0.00,VWS V14.00,2013-02-09 00:21:00,
2013-02-08 19:27:00,19.5,19.3,29.79,SSE,149,8.0,36.5,99,0.00,,,0.00,VWS V14.00,2013-02-09 00:27:00,
2013-02-08 19:33:00,19.6,19.5,29.80,SE,129,11.8,36.5,100,0.00,,,0.00,VWS V14.00,2013-02-09 00:33:00,
2013-02-08 19:39:00,19.4,19.4,29.79,SE,146,13.3,36.5,100,0.00,,,0.00,VWS V14.00,2013-02-09 00:39:00,
2013-02-08 19:45:00,19.4,19.4,29.79,South,179,8.9,36.5,100,0.00,,,0.00,VWS V14.00,2013-02-09 00:45:00,
2013-02-08 19:51:00,19.5,19.5,29.79,ESE,117,14.9,36.5,100,0.00,,,0.00,VWS V14.00,2013-02-09 00:51:00,
2013-02-08 19:57:00,19.5,19.5,29.78,ESE,122,6.1,36.5,100,0.00,,,0.00,VWS V14.00,2013-02-09 00:57:00,
2013-02-08 20:03:00,19.5,19.5,29.78,East,97,2.9,36.5,100,0.00,,,0.00,VWS V14.00,2013-02-09 01:03:00,
2013-02-08 20:09:00,19.3,19.3,29.77,East,91,7.2,36.5,100,0.00,,,0.00,VWS V14.00,2013-02-09 01:09:00,
2013-02-08 20:15:00,19.2,19.2,29.77,ESE,108,6.6,36.5,100,0.00,,,0.00,VWS V14.00,2013-02-09 01:15:00,
2013-02-08 20:21:00,19.2,19.2,29.76,East,98,8.0,36.5,100,0.00,,,0.00,VWS V14.00,2013-02-09 01:21:00,
2013-02-08 20:27:00,19.1,19.1,29.76,ESE,112,16.7,36.5,100,0.00,,,0.00,VWS V14.00,2013-02-09 01:27:00,
2013-02-08 20:33:00,19.3,19.3,29.76,ESE,117,6.8,36.5,100,0.00,,,0.00,VWS V14.00,2013-02-09 01:33:00,
2013-02-08 20:39:00,19.4,19.4,29.77,SE,134,4.1,36.5,100,0.00,,,0.00,VWS V14.00,2013-02-09 01:39:00,
2013-02-08 20:45:00,19.5,19.5,29.77,ESE,114,6.5,36.5,100,0.00,,,0.00,VWS V14.00,2013-02-09 01:45:00,
2013-02-08 20:51:00,19.4,19.4,29.77,SE,136,7.6,36.5,100,0.00,,,0.00,VWS V14.00,2013-02-09 01:51:00,
2013-02-08 20:57:00,19.4,19.4,29.77,ESE,103,9.5,36.5,100,0.00,,,0.00,VWS V14.00,2013-02-09 01:57:00,
2013-02-08 21:03:00,19.3,19.3,29.77,SE,129,0.0,36.5,100,0.00,,,0.00,VWS V14.00,2013-02-09 02:03:00,
2013-02-08 21:09:00,19.5,19.5,29.77,SE,131,2.9,36.5,100,0.00,,,0.00,VWS V14.00,2013-02-09 02:09:00,
2013-02-08 21:15:00,19.5,19.5,29.77,North,3,0.0,36.5,100,0.00,,,0.00,VWS V14.00,2013-02-09 02:15:00,
2013-02-08 21:21:00,19.5,19.5,29.77,SE,131,0.0,36.5,100,0.00,,,0.00,VWS V14.00,2013-02-09 02:21:00,
2013-02-08 21:27:00,19.5,19.5,29.77,SE,131,0.0,36.5,100,0.00,,,0.00,VWS V14.00,2013-02-09 02:27:00,
2013-02-08 21:33:00,19.7,19.7,29.77,NW,309,0.0,36.5,100,0.00,,,0.00,VWS V14.00,2013-02-09 02:33:00,
2013-02-08 21:39:00,19.6,19.6,29.77,NW,309,0.0,36.5,100,0.00,,,0.00,VWS V14.00,2013-02-09 02:39:00,
2013-02-08 21:45:00,19.7,19.7,29.77,NW,309,0.0,36.5,100,0.00,,,0.00,VWS V14.00,2013-02-09 02:45:00,
2013-02-08 21:51:00,19.9,19.9,29.77,NW,309,0.0,36.5,100,0.00,,,0.00,VWS V14.00,2013-02-09 02:51:00,
2013-02-08 21:57:00,20.0,20.0,29.77,NW,309,0.0,36.5,100,0.00,,,0.00,VWS V14.00,2013-02-09 02:57:00,
2013-02-08 22:03:00,19.9,19.8,29.77,ESE,110,0.0,36.5,100,0.00,,,0.00,VWS V14.00,2013-02-09 03:03:00,
2013-02-08 22:09:00,20.0,19.9,29.76,ESE,110,0.0,36.5,100,0.00,,,0.00,VWS V14.00,2013-02-09 03:09:00,
2013-02-08 22:15:00,20.0,19.9,29.76,SE,136,0.0,36.5,99,0.00,,,0.00,VWS V14.00,2013-02-09 03:15:00,
2013-02-08 22:21:00,19.9,19.7,29.76,SSW,198,0.0,36.5,99,0.00,,,0.00,VWS V14.00,2013-02-09 03:21:00,
2013-02-08 22:28:00,19.8,19.5,29.76,WSW,252,3.5,36.5,99,0.00,,,0.00,VWS V14.00,2013-02-09 03:28:00,
2013-02-08 22:34:00,19.8,19.5,29.76,WNW,297,0.0,36.5,99,0.00,,,0.00,VWS V14.00,2013-02-09 03:34:00,
2013-02-08 22:40:00,19.7,19.5,29.76,WNW,297,0.0,36.5,99,0.00,,,0.00,VWS V14.00,2013-02-09 03:40:00,
2013-02-08 22:46:00,19.8,19.6,29.75,WNW,297,0.0,36.5,99,0.00,,,0.00,VWS V14.00,2013-02-09 03:46:00,
2013-02-08 22:52:00,20.1,20.0,29.75,WNW,297,0.0,36.5,100,0.00,,,0.00,VWS V14.00,2013-02-09 03:52:00,
2013-02-08 22:58:00,20.0,19.9,29.75,WNW,297,0.0,36.5,100,0.00,,,0.00,VWS V14.00,2013-02-09 03:58:00,
2013-02-08 23:04:00,20.1,20.0,29.74,WNW,297,0.0,36.5,100,0.00,,,0.00,VWS V14.00,2013-02-09 04:04:00,
2013-02-08 23:10:00,19.9,19.7,29.74,WNW,297,0.0,36.5,99,0.00,,,0.00,VWS V14.00,2013-02-09 04:10:00,
2013-02-08 23:16:00,20.0,19.9,29.73,WNW,297,0.0,36.5,99,0.00,,,0.00,VWS V14.00,2013-02-09 04:16:00,
2013-02-08 23:22:00,20.1,20.0,29.73,WNW,297,0.0,36.5,100,0.00,,,0.00,VWS V14.00,2013-02-09 04:22:00,
2013-02-08 23:28:00,20.1,20.0,29.73,WNW,297,0.0,36.5,100,0.00,,,0.00,VWS V14.00,2013-02-09 04:28:00,
2013-02-08 23:34:00,20.2,20.1,29.73,WNW,297,0.0,36.5,99,0.00,,,0.00,VWS V14.00,2013-02-09 04:34:00,
2013-02-08 23:40:00,20.1,19.9,29.73,NNE,28,0.0,36.5,99,0.00,,,0.00,VWS V14.00,2013-02-09 04:40:00,
2013-02-08 23:46:00,20.1,19.9,29.73,NNE,28,0.0,36.5,99,0.00,,,0.00,VWS V14.00,2013-02-09 04:46:00,
2013-02-08 23:50:00,16.3,8.9,30.28,NNW,343,0.0,8.8,72,0.00,,,0.00,VWS V14.00,2013-02-09 04:50:00,
2013-02-08 23:52:00,20.0,19.8,29.72,NNE,28,0.0,0.0,99,0.00,,,0.00,VWS V14.00,2013-02-09 04:52:00,
2013-02-08 23:58:00,19.9,19.7,29.72,NNE,28,0.0,0.0,99,0.00,,,0.00,VWS V14.00,2013-02-09 04:58:00,